Cloud_Cover
0 0 0 0 0 1 4 3 1 1 8 33 96 92 89 92 62 100 100 87 100 100 90 100 100 100 100 100 100 100 98 100 100 99 100 100 100 43 3 4 6 0 27 100 100
0 0 0 0 0 3 3 5 6 46 50 70 5 28 86 100 80 74 95 100 100 100 100 100 100 100 100 100 100 100 100 92 24 63 100 100 54 57 2 0 1 1 0 90 100
0 0 0 0 0 3 5 58 98 60 59 25 86 6 6 95 100 100 97 99 96 94 36 91 62 73 100 100 99 80 93 4 94 100 100 100 94 8 3 4 0 39 56 10 6
0 0 0 0 0 2 4 35 100 100 100 100 96 8 8 29 79 97 93 100 100 93 100 100 100 100 100 100 100 100 78 100 100 100 100 100 99 100 78 65 2 62 100 61 32
0 0 0 0 0 0 2 65 76 100 100 100 31 100 50 44 98 94 82 13 75 94 100 100 100 100 100 100 100 100 100 100 100 100 100 100 44 100 56 16 5 38 98 98 100
0 0 0 0 0 5 4 5 19 100 100 100 99 100 100 68 45 99 100 100 100 100 100 100 100 100 82 100 100 100 100 100 100 100 100 100 100 100 29 33 5 12 28 100 100
0 0 0 0 0 1 5 13 5 86 100 100 100 100 100 100 100 100 94 61 100 100 100 100 100 93 9 28 100 100 97 84 71 75 9 33 5 6 100 100 100 32 5 88 100
0 0 0 0 1 5 5 8 54 24 29 92 100 100 100 94 100 100 100 100 97 100 77 99 100 98 100 100 97 88 100 41 38 3 5 8 5 78 100 100 100 99 5 7 100
0 0 0 0 0 4 5 18 87 88 97 69 100 100 100 98 81 81 100 100 96 45 100 100 24 8 21 100 100 100 100 92 6 10 4 48 26 5 100 100 100 100 76 5 5
0 0 0 0 3 5 5 5 5 23 100 92 44 68 100 88 78 63 10 9 30 93 100 96 93 96 5 2 83 100 99 95 38 13 5 5 54 0 95 100 100 62 100 64 39
0 0 0 0 0 4 93 15 6 36 96 100 100 100 57 97 8 76 7 5 30 76 31 87 100 64 18 100 100 100 100 100 100 0 12 100 92 0 2 39 84 5 5 96 100
0 0 3 5 10 5 18 73 100 98 92 100 100 100 87 78 26 81 100 78 8 5 26 12 31 37 79 70 74 99 100 100 100 16 1 98 100 100 0 12 7 9 5 5 5
0 0 4 5 32 18 100 100 100 95 88 100 100 94 92 76 62 43 43 65 70 47 8 90 19 96 25 4 5 16 5 16 8 5 5 35 63 78 14 2 60 7 0 0 0
4 5 5 31 81 100 100 100 63 7 4 4 8 5 4 0 3 0 0 0 2 1 2 0 0 1 26 30 86 60 4 41 5 5 5 8 60 46 14 2 0 21 4 0 3
5 33 99 100 100 100 98 83 7 25 60 2 0 0 0 0 0 0 0 0 0 2 0 96 0 0 0 0 0 3 5 5 5 0 0 0 0 5 5 0 0 0 5 5 2
95 100 100 92 5 5 30 19 3 8 11 0 0 0 0 0 0 0 3 0 0 2 0 0 0 0 0 0 0 0 0 0 0 0 0 0 1 0 0 68 40 3 3 5 4
100 58 13 6 6 1 0 0 31 55 0 0 0 0 2 0 4 4 4 4 24 44 100 62 2 0 0 0 2 0 0 4 12 23 0 76 51 80 4 7 96 2 0 0 0
89 96 21 0 0 0 0 1 45 0 0 0 0 1 4 0 3 22 11 66 0 2 12 100 80 3 0 0 0 0 0 12 78 10 13 7 7 84 1 0 2 12 0 0 0
5 0 0 0 0 0 0 91 0 0 0 0 9 2 94 62 6 87 19 5 5 5 35 34 86 0 0 0 0 9 98 15 0 1 0 0 4 6 5 8 22 27 4 4 5
0 2 0 0 0 0 0 0 0 0 0 0 5 0 4 4 5 14 29 1 4 1 2 47 24 10 0 0 0 0 0 3 75 74 69 64 86 100 33 78 92 46 4 0 0
5 2 0 0 0 0 56 0 0 0 0 0 1 4 5 2 4 8 22 12 3 4 4 40 71 53 5 5 5 6 22 11 5 33 88 78 52 7 15 66 62 81 11 5 5
5 0 0 0 0 0 0 0 0 0 0 0 0 0 2 3 5 5 5 5 5 5 28 4 4 5 8 4 3 5 21 78 71 40 60 85 20 16 18 5 5 5 5 5 5
14 4 1 0 37 0 0 0 0 0 0 0 2 0 0 5 26 5 5 5 5 1 4 32 31 8 5 23 99 56 7 14 89 71 40 100 23 100 68 97 71 24 75 80 84
2 41 0 0 0 0 0 0 0 0 0 0 0 0 3 4 4 3 5 5 3 1 0 0 2 5 4 94 53 23 32 78 62 20 9 78 48 26 22 35 5 87 100 98 88
91 0 0 9 0 0 0 0 0 1 0 2 5 5 5 5 5 5 5 10 16 5 0 5 8 5 5 10 6 5 18 33 82 48 27 8 8 5 96 100 69 78 91 64 88
0 0 0 0 0 0 0 0 0 0 0 4 2 5 4 4 5 5 5 13 58 5 99 97 48 54 5 5 60 52 52 24 66 56 5 5 5 5 5 15 99 100 100 100 12
0 0 0 0 0 0 0 0 0 0 0 0 0 0 5 5 4 5 4 5 4 10 58 99 100 100 83 5 5 43 20 3 99 98 96 36 51 48 82 6 35 52 59 99 100